Showing default

KOREASAT 6A, 61910

Orbit data source: Space-Track

KOREASAT 6A, 61910 is a payload satellite owned by KT Sat (KR) in GEO that was launched on Mon, 11 Nov 2024 UTC via an FALCON 9 launch vehicle from the Air Force Eastern Test Range (AFETR). Payload-class satellites include a variety of spacecraft equipped with specific instruments for various scientific and technological missions. These include communications satellites like Starlink; space stations such as the ISS; scientific satellites like the Hubble; Earth observation satellites from companies like Planet Labs, Umbra, and HawkEye 360; GPS; miniature CubeSats for education and research; and military/defense satellites.

Not visible in the next 10 days
Identifier
61910, 2024-206A
Orbit
GEO
Country
Flag of KRKR / SKOR
Related business
Manufacturer
Thales Alenia
Mission
Operational Commercial Communications
Bus & Motor
SPACEBUS 4000B2, S400
Mass
~3,500 kg wet, ~2,000 kg dry
Launch date (UTC)
2024-11-11 (2 years ago)
Launch vehicle
FALCON 9
Launch site
Air Force Eastern Test Range (AFETR)
Object type
Payload
Rocket body
Debris
Shape & HBR
Box + 2 Pan, 19.0 m
Radar Cross Section
39.423 m², Large (>1 m²)

Expand to show TLE details & history
Last TLE update: 20 hours ago

TLE from 20 hours ago
0 KOREASAT 6A
1 61910U 24206A   26257.88326057 -.00000369  00000-0  00000-0 0  9991
2 61910   0.0108 158.4328 0000896 351.6110 277.8166  1.00272673  6730
Epoch: 2026-09-14T21:11Z
TLE epoch observation values (Epoch: 2026-09-14T21:11:53.713Z)
Latitude
-0.03297°
Longitude
116.01333°
Altitude
35,785.34 km
Speed
3.075 km/s
True Right ascension
04h 31m 22s
True Declination
0° 01' 59"
Sunlit
Object was in daylight at epoch
Visualization orbit readout
Latitude
Unknown
Longitude
Unknown
Altitude
Unknown
Speed
Unknown
Apparent Right ascension
Unknown
Apparent Declination
Unknown
Sunlit
N/A
Visualization observer readout
Local Sidereal Time
09:56:56
Azimuth
Unknown
Elevation
Unknown
Doppler factor
Unknown
Orbital elements
Apogee altitude
35,791.194 km
Perigee altitude
35,783.638 km
Semi-major axis
42,165.553 km
Eccentricity
0.00009
Inclination
0.0108°
RAAN
158.4328°
Arg. of periapsis
351.611°
True anomaly
277.80643°
Mean anomaly
277.8166°
Eccentric anomaly
277.81151°
Mean motion
0.25067 °/min
Orbital period
1,436.14 mins
BSTAR
0
Loading maneuver chart data...
Computing Atmospheric mass density...
Loading historical data...
Loading historical data...
Loading historical data...
Loading historical data...
Loading historical data...
Loading historical data...
Loading historical data...
Other satellites on launch #206 in the year 2024 (2024-11-11 UTC)

Documentation

Showing up to 5 results
|